[keps] orb08283.amsat
Ray Hoad
r.hoad at att.net
Thu Oct 9 20:40:56 PDT 2008
SB KEPS @ AMSAT $ORB08283.O
Orbital Elements 08283.OSCAR
HR AMSAT ORBITAL ELEMENTS FOR OSCAR SATELLITES
FROM WA5QGD FORT WORTH,TX October 9, 2008
Send Subscribe/unsubscribe to KEPS at
http://www.amsat.org/mailman/listinfo/keps
BID: ORB08283.O
TO ALL RADIO AMATEURS BT
Satellite: AO-07
Catalog number: 07530
Epoch time: 08283.65627308
Element set: 297
Inclination: 101.4568 deg
RA of node: 311.2861 deg
Eccentricity: 0.0012054
Arg of perigee: 039.2337 deg
Mean anomaly: 320.9603 deg
Mean motion: 12.53574392 rev/day
Decay rate: -2.7e-07 rev/day^2
Epoch rev: 55132
Checksum: 285
Satellite: AO-10
Catalog number: 14129
Epoch time: 08283.29233616
Element set: 571
Inclination: 026.0321 deg
RA of node: 191.7075 deg
Eccentricity: 0.5961881
Arg of perigee: 163.6759 deg
Mean anomaly: 229.9048 deg
Mean motion: 02.05869572 rev/day
Decay rate: -2.53e-06 rev/day^2
Epoch rev: 19045
Checksum: 321
Satellite: UO-11
Catalog number: 14781
Epoch time: 08282.52361380
Element set: 782
Inclination: 098.1437 deg
RA of node: 318.1897 deg
Eccentricity: 0.0010141
Arg of perigee: 070.9352 deg
Mean anomaly: 289.2961 deg
Mean motion: 14.79666129 rev/day
Decay rate: -1.77e-06 rev/day^2
Epoch rev: 32061
Checksum: 316
Satellite: RS-15
Catalog number: 23439
Epoch time: 08282.62783306
Element set: 0165
Inclination: 064.8193 deg
RA of node: 311.6108 deg
Eccentricity: 0.0145852
Arg of perigee: 100.7618 deg
Mean anomaly: 260.9761 deg
Mean motion: 11.27552393 rev/day
Decay rate: -3.9e-07 rev/day^2
Epoch rev: 56775
Checksum: 316
Satellite: FO-29
Catalog number: 24278
Epoch time: 08282.78602685
Element set: 0886
Inclination: 098.5746 deg
RA of node: 184.1627 deg
Eccentricity: 0.0349818
Arg of perigee: 281.5509 deg
Mean anomaly: 074.6557 deg
Mean motion: 13.52939730 rev/day
Decay rate: -7.5e-07 rev/day^2
Epoch rev: 59975
Checksum: 384
Satellite: SO-33
Catalog number: 25509
Epoch time: 08282.63443417
Element set: 0298
Inclination: 031.4356 deg
RA of node: 034.8829 deg
Eccentricity: 0.0354908
Arg of perigee: 298.9806 deg
Mean anomaly: 057.5678 deg
Mean motion: 14.28226793 rev/day
Decay rate: -1.17e-06 rev/day^2
Epoch rev: 51984
Checksum: 354
Satellite: AO-40
Catalog number: 26609
Epoch time: 08281.84317556
Element set: 0132
Inclination: 007.8930 deg
RA of node: 056.3693 deg
Eccentricity: 0.7937776
Arg of perigee: 131.2361 deg
Mean anomaly: 330.6936 deg
Mean motion: 01.25586975 rev/day
Decay rate: -3.96e-06 rev/day^2
Epoch rev: 03645
Checksum: 338
Satellite: VO-52
Catalog number: 28650
Epoch time: 08282.87510629
Element set: 0051
Inclination: 097.7770 deg
RA of node: 346.2937 deg
Eccentricity: 0.0028035
Arg of perigee: 128.4219 deg
Mean anomaly: 231.9557 deg
Mean motion: 14.81504640 rev/day
Decay rate: -3.5e-07 rev/day^2
Epoch rev: 18543
Checksum: 314
Satellite: PO-63
Catalog number: 29712
Epoch time: 08282.78876581
Element set: 0864
Inclination: 097.8634 deg
RA of node: 338.7786 deg
Eccentricity: 0.0014731
Arg of perigee: 016.8586 deg
Mean anomaly: 343.3112 deg
Mean motion: 14.80287227 rev/day
Decay rate: 4.84e-06 rev/day^2
Epoch rev: 09427
Checksum: 353
/EX
SB KEPS @ AMSAT $ORB08283.D
Orbital Elements 08283.MICROS
HR AMSAT ORBITAL ELEMENTS FOR THE MICROSATS
FROM WA5QGD FORT WORTH,TX October 9, 2008
Send Subscribe/unsubscribe to KEPS at
http://www.amsat.org/mailman/listinfo/keps
BID: ORB08283.D
TO ALL RADIO AMATEURS BT
Satellite: AO-16
Catalog number: 20439
Epoch time: 08283.46846579
Element set: 436
Inclination: 098.2452 deg
RA of node: 257.7697 deg
Eccentricity: 0.0010557
Arg of perigee: 191.8752 deg
Mean anomaly: 168.2210 deg
Mean motion: 14.31804543 rev/day
Decay rate: 7.0e-08 rev/day^2
Epoch rev: 97727
Checksum: 336
Satellite: LO-19
Catalog number: 20442
Epoch time: 08283.56671627
Element set: 359
Inclination: 098.2145 deg
RA of node: 266.0420 deg
Eccentricity: 0.0011745
Arg of perigee: 189.2662 deg
Mean anomaly: 170.8293 deg
Mean motion: 14.32041681 rev/day
Decay rate: -1.32e-06 rev/day^2
Epoch rev: 97744
Checksum: 309
Satellite: AO-27
Catalog number: 22825
Epoch time: 08282.47232136
Element set: 0079
Inclination: 098.3998 deg
RA of node: 238.3219 deg
Eccentricity: 0.0007520
Arg of perigee: 288.9450 deg
Mean anomaly: 071.0920 deg
Mean motion: 14.29248549 rev/day
Decay rate: 4.7e-07 rev/day^2
Epoch rev: 78395
Checksum: 337
Satellite: IO-26
Catalog number: 22826
Epoch time: 08282.85660894
Element set: 0793
Inclination: 098.3928 deg
RA of node: 239.5529 deg
Eccentricity: 0.0008114
Arg of perigee: 284.2511 deg
Mean anomaly: 075.7785 deg
Mean motion: 14.29497979 rev/day
Decay rate: -1.2e-07 rev/day^2
Epoch rev: 78410
Checksum: 359
Satellite: GO-32
Catalog number: 25397
Epoch time: 08282.86719043
Element set: 716
Inclination: 098.3542 deg
RA of node: 312.3609 deg
Eccentricity: 0.0000299
Arg of perigee: 271.6853 deg
Mean anomaly: 088.4292 deg
Mean motion: 14.23148574 rev/day
Decay rate: -9.9e-07 rev/day^2
Epoch rev: 53238
Checksum: 333
Satellite: NO-44
Catalog number: 26931
Epoch time: 08282.76715099
Element set: 996
Inclination: 067.0550 deg
RA of node: 352.0583 deg
Eccentricity: 0.0007154
Arg of perigee: 262.3145 deg
Mean anomaly: 097.7146 deg
Mean motion: 14.29535615 rev/day
Decay rate: 8.4e-07 rev/day^2
Epoch rev: 36664
Checksum: 329
Satellite: SO-50
Catalog number: 27607
Epoch time: 08283.46338562
Element set: 718
Inclination: 064.5586 deg
RA of node: 066.5747 deg
Eccentricity: 0.0085595
Arg of perigee: 257.3923 deg
Mean anomaly: 101.7592 deg
Mean motion: 14.71384011 rev/day
Decay rate: -1.24e-06 rev/day^2
Epoch rev: 31178
Checksum: 326
Satellite: CO-55
Catalog number: 27844
Epoch time: 08282.76329342
Element set: 0414
Inclination: 098.7177 deg
RA of node: 289.4660 deg
Eccentricity: 0.0010327
Arg of perigee: 144.1276 deg
Mean anomaly: 216.0592 deg
Mean motion: 14.20599639 rev/day
Decay rate: 3.5e-07 rev/day^2
Epoch rev: 27356
Checksum: 327
Satellite: CO-57
Catalog number: 27848
Epoch time: 08282.98801883
Element set: 364
Inclination: 098.7176 deg
RA of node: 288.7641 deg
Eccentricity: 0.0009812
Arg of perigee: 147.5112 deg
Mean anomaly: 212.6677 deg
Mean motion: 14.20407270 rev/day
Decay rate: 1.3e-07 rev/day^2
Epoch rev: 27356
Checksum: 330
Satellite: AO-51
Catalog number: 28375
Epoch time: 08282.81671453
Element set: 0218
Inclination: 098.0660 deg
RA of node: 300.9710 deg
Eccentricity: 0.0083493
Arg of perigee: 167.4289 deg
Mean anomaly: 192.9009 deg
Mean motion: 14.40620032 rev/day
Decay rate: -.00000000 rev/day^2
Epoch rev: 22476
Checksum: 287
Satellite: CO-56
Catalog number: 28941
Epoch time: 08283.66719146
Element set: 446
Inclination: 098.1171 deg
RA of node: 050.5720 deg
Eccentricity: 0.0147621
Arg of perigee: 343.9304 deg
Mean anomaly: 015.7346 deg
Mean motion: 15.62412506 rev/day
Decay rate: 2.1482e-04 rev/day^2
Epoch rev: 14788
Checksum: 314
Satellite: CP3
Catalog number: 31128
Epoch time: 08282.83455515
Element set: 0453
Inclination: 098.0275 deg
RA of node: 341.3970 deg
Eccentricity: 0.0102584
Arg of perigee: 344.1778 deg
Mean anomaly: 015.6201 deg
Mean motion: 14.51979143 rev/day
Decay rate: -4.8e-07 rev/day^2
Epoch rev: 07842
Checksum: 301
Satellite: CP4
Catalog number: 31132
Epoch time: 08282.68803245
Element set: 0432
Inclination: 098.0318 deg
RA of node: 343.9752 deg
Eccentricity: 0.0085234
Arg of perigee: 336.8395 deg
Mean anomaly: 022.8952 deg
Mean motion: 14.55146686 rev/day
Decay rate: .00000000 rev/day^2
Epoch rev: 07845
Checksum: 300
Satellite: CO-65
Catalog number: 32785
Epoch time: 08282.46094547
Element set: 0187
Inclination: 097.9818 deg
RA of node: 342.0322 deg
Eccentricity: 0.0015745
Arg of perigee: 125.0424 deg
Mean anomaly: 235.2271 deg
Mean motion: 14.81398751 rev/day
Decay rate: 7.3e-07 rev/day^2
Epoch rev: 02417
Checksum: 313
/EX
SB KEPS @ AMSAT $ORB08283.W
Orbital Elements 08283.WEATHER
HR AMSAT ORBITAL ELEMENTS FOR WEATHER SATELLITES
FROM WA5QGD FORT WORTH,TX October 9, 2008
Send Subscribe/unsubscribe to KEPS at
http://www.amsat.org/mailman/listinfo/keps
BID: ORB08283.W
TO ALL RADIO AMATEURS BT
Satellite: NOAA-10
Catalog number: 16969
Epoch time: 08283.55599178
Element set: 321
Inclination: 098.7182 deg
RA of node: 305.2691 deg
Eccentricity: 0.0011868
Arg of perigee: 204.7506 deg
Mean anomaly: 155.3111 deg
Mean motion: 14.27369219 rev/day
Decay rate: -1.06e-06 rev/day^2
Epoch rev: 14775
Checksum: 320
Satellite: NOAA-11
Catalog number: 19531
Epoch time: 08283.30518622
Element set: 351
Inclination: 098.7949 deg
RA of node: 011.0233 deg
Eccentricity: 0.0012270
Arg of perigee: 102.1847 deg
Mean anomaly: 258.0734 deg
Mean motion: 14.14879959 rev/day
Decay rate: 2.14e-06 rev/day^2
Epoch rev: 3404
Checksum: 283
Satellite: NOAA-12
Catalog number: 21263
Epoch time: 08283.60906975
Element set: 867
Inclination: 098.7730 deg
RA of node: 285.5801 deg
Eccentricity: 0.0012616
Arg of perigee: 149.1704 deg
Mean anomaly: 211.0217 deg
Mean motion: 14.25548913 rev/day
Decay rate: 2.1e-07 rev/day^2
Epoch rev: 90469
Checksum: 304
Satellite: MET-3/5
Catalog number: 21655
Epoch time: 08282.91922053
Element set: 0500
Inclination: 082.5590 deg
RA of node: 024.0211 deg
Eccentricity: 0.0014766
Arg of perigee: 088.7580 deg
Mean anomaly: 271.5234 deg
Mean motion: 13.17017020 rev/day
Decay rate: 5.1e-07 rev/day^2
Epoch rev: 82455
Checksum: 269
Satellite: MET-2/21
Catalog number: 22782
Epoch time: 08282.81514807
Element set: 269
Inclination: 082.5511 deg
RA of node: 021.4245 deg
Eccentricity: 0.0021865
Arg of perigee: 335.3573 deg
Mean anomaly: 024.6529 deg
Mean motion: 13.83632857 rev/day
Decay rate: 4.0e-08 rev/day^2
Epoch rev: 76284
Checksum: 305
Satellite: OKEAN-4
Catalog number: 23317
Epoch time: 08282.84410262
Element set: 0716
Inclination: 082.5399 deg
RA of node: 209.0093 deg
Eccentricity: 0.0023731
Arg of perigee: 110.7461 deg
Mean anomaly: 249.6318 deg
Mean motion: 14.82640004 rev/day
Decay rate: 1.85e-06 rev/day^2
Epoch rev: 75512
Checksum: 282
